Weather History for Rhinelander, WI

Change the Weather History Date:

Sunday, February 16, 2014

  Actual Average Record
Temperature  
Mean Temperature 9 °F 17 °F  
Max Temperature 17 °F 27 °F 60 °F (1931)
Min Temperature 0 °F 7 °F -41 °F (1936)
Degree Days  
Heating Degree Days 56 48  
Month to date heating degree days 1021 806  
Since 1 July heating degree days 6959 6067  
Cooling Degree Days 0 0  
Month to date cooling degree days 0 0  
Year to date cooling degree days 0 0  
Moisture  
Dew Point 4 °F    
Average Humidity 74    
Maximum Humidity 87    
Minimum Humidity 61    
Precipitation  
Precipitation 0.01 in 0.03 in 0.39 in (1962)
Month to date precipitation 0.39 0.50  
Year to date precipitation 1.77 1.61  
Snow  
Snow 0.20 in - 3.00 in (2006)
Month to date snowfall 6.5  
Since 1 July snowfall 61.3  
Snow Depth 24.00 in    
Sea Level Pressure  
Sea Level Pressure 30.17 in    
Wind  
Wind Speed 6 mph (East)    
Max Wind Speed 12 mph    
Max Gust Speed 16 mph    
Visibility 9 miles    
Events Snow    
T = Trace of Precipitation, MM = Missing Value Source: NWS Daily Summary

Daily Weather History Graph

Daily Weather History Graph

Search for Another Location

Airport:

Trip Planner

Search our weather history database for the weather conditions in past years. The results will help you decide how hot, cold, wet, or windy it might be!

Date:

Astronomy

Feb. 16, 2014 Rise Set
Actual Time 6:58 AM CST 5:26 PM CST
Civil Twilight 6:27 AM CST 5:56 PM CST
Nautical Twilight 5:53 AM CST 6:31 PM CST
Astronomical Twilight 5:18 AM CST 7:05 PM CST
Moon 7:31 PM CST (2/16) 7:21 AM CST (2/16)
Length of Visible Light 11h 29m
Length of Day
10h 28m
Full, 97% of the Moon is Illuminated
Feb 16
Full
Feb 22
Last Quarter
Mar 1
New
Mar 8
First Quarter
Mar 16
Full

Hourly Weather History & Observations

Time (CST) Temp. Windchill Dew Point Humidity Pressure Visibility Wind Dir Wind Speed Gust Speed Precip Events Conditions
12:41 AM 10.0 °F 3.6 °F 8.1 °F 92% 29.89 in 8.0 mi West 3.5 mph - 0.00 in   Overcast
12:53 AM 10.0 °F 3.6 °F 7.0 °F 87% 30.00 in 7.0 mi WNW 3.5 mph - 0.00 in   Overcast
1:19 AM 10.9 °F - 9.0 °F 92% 29.90 in 3.0 mi Calm Calm - 0.00 in Snow Light Snow
1:53 AM 12.0 °F 4.1 °F 9.0 °F 88% 30.01 in 4.0 mi NW 4.6 mph - 0.00 in Snow Light Snow
2:53 AM 12.0 °F 2.7 °F 9.0 °F 88% 30.02 in 6.0 mi NNW 5.8 mph - 0.00 in Snow Light Snow
3:53 AM 9.0 °F -5.1 °F 5.0 °F 84% 30.04 in 7.0 mi North 10.4 mph - 0.00 in   Overcast
4:39 AM 6.1 °F -4.3 °F 1.9 °F 83% 29.97 in 9.0 mi North 5.8 mph - N/A   Overcast
4:53 AM 5.0 °F -5.6 °F 1.9 °F 87% 30.09 in 10.0 mi North 5.8 mph - N/A   Scattered Clouds
5:53 AM 3.0 °F -8.0 °F -0.9 °F 84% 30.14 in 10.0 mi North 5.8 mph - N/A   Clear
6:53 AM 1.0 °F -11.7 °F -2.9 °F 83% 30.17 in 10.0 mi NNE 6.9 mph - N/A   Clear
7:53 AM 1.0 °F -6.7 °F -2.9 °F 83% 30.22 in 10.0 mi Variable 3.5 mph - N/A   Clear
8:53 AM 3.9 °F -8.2 °F -0.0 °F 84% 30.23 in 10.0 mi ENE 6.9 mph - N/A   Clear
9:53 AM 7.0 °F -4.5 °F 1.0 °F 77% 30.24 in 10.0 mi ENE 6.9 mph - N/A   Clear
10:53 AM 9.0 °F -0.9 °F 1.9 °F 73% 30.27 in 10.0 mi ENE 5.8 mph - N/A   Clear
11:53 AM 10.9 °F 4.7 °F 3.9 °F 73% 30.27 in 10.0 mi SE 3.5 mph - N/A   Clear
12:53 PM 12.9 °F 5.2 °F 5.0 °F 71% 30.25 in 10.0 mi SE 4.6 mph - N/A   Clear
1:53 PM 14.0 °F 6.5 °F 6.1 °F 71% 30.24 in 10.0 mi ESE 4.6 mph - N/A   Clear
2:53 PM 15.1 °F 6.4 °F 5.0 °F 64% 30.23 in 10.0 mi East 5.8 mph - N/A   Clear
3:53 PM 17.1 °F 10.0 °F 6.1 °F 62% 30.24 in 10.0 mi East 4.6 mph - N/A   Clear
4:53 PM 12.9 °F 3.8 °F 3.9 °F 67% 30.26 in 10.0 mi SE 5.8 mph - N/A   Clear
5:53 PM 9.0 °F 0.6 °F 1.9 °F 73% 30.27 in 10.0 mi ESE 4.6 mph - N/A   Clear
6:53 PM 12.0 °F 4.1 °F 3.9 °F 70% 30.28 in 10.0 mi SE 4.6 mph - N/A   Clear
7:53 PM 12.0 °F 0.5 °F 3.9 °F 70% 30.26 in 10.0 mi SE 8.1 mph - N/A   Clear
8:53 PM 10.9 °F 0.2 °F 3.9 °F 73% 30.26 in 10.0 mi SE 6.9 mph - N/A   Clear
9:53 PM 9.0 °F 2.4 °F 3.0 °F 77% 30.26 in 10.0 mi South 3.5 mph - N/A   Clear
10:53 PM 8.1 °F -3.2 °F 3.0 °F 80% 30.26 in 10.0 mi SE 6.9 mph - N/A   Clear
11:53 PM 8.1 °F -4.3 °F 3.0 °F 80% 30.25 in 10.0 mi SE 8.1 mph - N/A   Clear